Location: Mount Graham
(32.7016°N, 109.8912°W)
Time: 00:19:06
(UTC-07:00)

Cosmos 1340 - Visible Passes

Search period start: 22 August 2017 00:00
Search period end: 01 September 2017 00:00
Orbit: 505 x 509 km, 81.2° (Epoch: 21 August)

Date Brightness Start Highest point End Pass type
(mag) Time Alt. Az. Time Alt. Az. Time Alt. Az.
24 Aug 6.0 05:06:33 10° ESE 05:08:14 13° E 05:09:55 10° ENE visible
29 Aug 3.2 05:11:34 10° S 05:15:17 62° E 05:19:02 10° NNE visible
30 Aug 3.9 04:54:03 10° SSE 04:57:39 45° E 05:01:17 10° NNE visible
31 Aug 4.4 04:36:37 10° SSE 04:40:02 33° E 04:43:28 10° NNE visible
